Home > Weather > Hamamatsu > Past weeks

Flag for Japan Past Weather in Hamamatsu, Japan — Yesterday and Last 2 Weeks

Now
76 °F

Mild.


Feels Like: 76 °F
Forecast: 73 / 83 °F
Wind: 1 mph from East

Location: Omaezaki

Current Time: Jul 26, 2016 at 9:51:42 AM

Latest Report: Jul 26, 2016 at 9:00 AM


Visibility: 13 mi

Pressure: 29.91 "Hg

Humidity: 81%

Dew Point: 69 °F

Location of HamamatsuLocation

Past Weather in Hamamatsu — Graph

°F

Hamamatsu Temperature Yesterday

Maximum temperature yesterday: 80 °F (at 1:00 PM)
Minimum temperature yesterday: 71 °F (at 5:00 AM)
Average temperature yesterday: 76 °F

High & Low Weather Summary for the Past Weeks

 TemperatureHumidityPressure
High85 °F (Jul 18, 2:00 PM)99% (Jul 12, 5:00 AM)30.00 "Hg (Jul 12, 5:00 AM)
Low71 °F (Jul 25, 5:00 AM)62% (Jul 23, 2:00 PM)29.35 "Hg (Jul 14, 3:00 PM)
Average77 °F84%29.77 "Hg
* Reported Jul 11 8:00 AM — Jul 26 8:00 AM, Hamamatsu, Weather by CustomWeather, © 2016

Note: Actual official high and low records may vary slightly from our data, if they occured in-between our weather recording intervals... More about our weather records

Advertising

Hamamatsu Weather History for the Previous 24 Hours

Scroll right to see more
 ConditionsComfort  
Time TempWeatherWind HumidityBarometerVisibility
8:00 AM
Tue, Jul 26
76 °FMild.3 mph78%29.91 "Hg12 mi
7:00 AM75 °FMild.2 mph87%29.90 "Hg7 mi
6:00 AM74 °FMild.2 mph86%29.90 "Hg11 mi
5:00 AM74 °FMild.2 mph83%29.90 "Hg12 mi
4:00 AM74 °FMild.1 mph87%29.91 "Hg7 mi
3:00 AM74 °FMild.No wind86%29.91 "Hg9 mi
2:00 AM74 °FMild.2 mph84%29.92 "Hg9 mi
1:00 AM75 °FMild.2 mph84%29.93 "Hg8 mi
12:00 AM75 °FFog.2 mph84%29.93 "Hg6 mi
11:00 PM
Mon, Jul 25
74 °FMild.2 mph83%29.95 "Hg7 mi
10:00 PM75 °FMild.2 mph83%29.95 "Hg7 mi
9:00 PM75 °FMild.1 mph82%29.96 "Hg8 mi
8:00 PM75 °FMild.2 mph80%29.95 "Hg9 mi
7:00 PM76 °FMild.5 mph79%29.94 "Hg9 mi
6:00 PM76 °FMild.5 mph79%29.95 "Hg9 mi
5:00 PM77 °FWarm.7 mph76%29.94 "Hg8 mi
4:00 PM77 °FWarm.7 mph76%29.95 "Hg9 mi
3:00 PM80 °FWarm.8 mph72%29.93 "Hg11 mi
2:00 PM79 °FWarm.8 mph75%29.94 "Hg10 mi
1:00 PM80 °FWarm.8 mph72%29.95 "Hg12 mi
12:00 PM79 °FWarm.8 mph72%29.96 "Hg12 mi
11:00 AM80 °FWarm.9 mph72%29.97 "Hg12 mi
10:00 AM79 °FWarm.7 mph68%29.98 "Hg12 mi
9:00 AM78 °FWarm.5 mph70%29.98 "Hg12 mi
Weather by CustomWeather, © 2016

See weather overviewHow to use our weather pages